Location: Pordenone
(45.9640°N, 12.6580°E)
Time: 18:16:40
(UTC+02:00)

ISS - Pass Details

Date: 15 May 2021
Orbit: 417 x 422 km, 51.6° (Epoch: 18 June)

Event Time Altitude Azimuth Distance (km) Brightness Sun altitude
Rises 23:37:15 0° 263° (W) 2,362 0.3 -21.9°
Reaches altitude 10° 23:39:25 10° 271° (W) 1,501 -0.7 -22.1°
Maximum altitude 23:42:39 42° 343° (NNW) 617 -2.5 -22.3°
Drops below altitude 10° 23:45:53 10° 56° (ENE) 1,508 -0.8 -22.5°
Sets 23:48:04 0° 64° (ENE) 2,375 0.1 -22.6°
